Date String (YYYY-MM-DD hh:mm:ss) UTC,Instrument flags,Ambient pressure (hPa),Sample flow (lpm),Bypass flow (lpm),Sample temperature (°C),Ambient temperature (°C),ASC tube jacket temperature (°C),LED temperature (°C),Box temperature (°C),Sample RH (%),Span deviation,Mass concentration (μg/m³),Mass concentration (μg/m³),Mass concentration (μg/m³)
DateTimeUTC,F1_M11,P_M11,Q1_M11,Q2_M11,T1_M11,T2_M11,T3_M11,T4_M11,T5_M11,U1_M11,ZSPAN_M11,X0_M11,X2_M11,X1_M11
2023-01-23 19:00:00,,0826.4,5.01,0.00,22.7,21.5,00.0,31.4,24.6,14.2,0000.2,0012.57,0010.07,0009.77
2023-01-23 19:01:00,,0826.3,5.01,0.00,22.7,21.4,00.0,31.4,24.6,14.2,0000.2,0012.43,0010.02,0009.73
2023-01-23 19:02:00,,0826.2,5.00,0.00,22.7,21.4,00.0,31.4,24.6,14.1,0000.9,0012.43,0009.99,0009.69
2023-01-23 19:03:00,,0826.2,5.00,0.00,22.7,21.3,00.0,31.4,24.5,14.1,0000.5,0012.49,0009.98,0009.66
2023-01-23 19:04:00,,0826.3,5.00,0.00,22.7,21.2,00.0,31.4,24.5,14.2,0000.8,0012.40,0009.94,0009.62
2023-01-23 19:05:00,,0826.2,5.01,0.00,22.7,21.2,00.0,31.4,24.5,14.3,0001.1,0012.38,0009.90,0009.59
2023-01-23 19:06:00,,0826.2,4.99,0.00,22.7,21.2,00.0,31.4,24.5,14.3,0001.5,0012.38,0009.89,0009.58
2023-01-23 19:07:00,,0826.2,5.00,0.00,22.7,21.3,00.0,31.4,24.5,14.3,0001.8,0012.42,0009.89,0009.57
2023-01-23 19:08:00,,0826.2,4.99,0.00,22.7,21.4,00.0,31.4,24.5,14.3,0001.4,0012.37,0009.86,0009.55
2023-01-23 19:09:00,,0826.2,5.00,0.00,22.7,21.4,00.0,31.4,24.5,14.4,0000.1,0012.35,0009.87,0009.58
2023-01-23 19:10:00,,0826.2,5.00,0.00,22.7,21.4,00.0,31.4,24.5,14.4,-000.3,0012.37,0009.89,0009.60
2023-01-23 19:11:00,,0826.1,5.00,0.00,22.7,21.5,00.0,31.4,24.5,14.4,-000.5,0012.35,0009.91,0009.63
2023-01-23 19:12:00,,0826.0,5.00,0.00,22.7,21.5,00.0,31.4,24.6,14.4,-000.9,0012.25,0009.86,0009.60
2023-01-23 19:13:00,,0826.0,4.99,0.00,22.7,21.6,00.0,31.4,24.6,14.3,-000.2,0012.10,0009.78,0009.55
2023-01-23 19:14:00,,0826.0,5.00,0.00,22.7,21.5,00.0,31.4,24.6,14.3,-000.2,0011.99,0009.73,0009.52
2023-01-23 19:15:00,,0826.0,4.99,0.00,22.7,21.6,00.0,31.4,24.6,14.4,-000.0,0011.98,0009.70,0009.50
2023-01-23 19:16:00,,0826.0,5.01,0.00,22.7,21.5,00.0,31.5,24.6,14.2,-000.9,0011.85,0009.63,0009.44
2023-01-23 19:17:00,,0825.9,5.01,0.00,22.7,21.5,00.0,31.5,24.6,14.2,-002.0,0011.67,0009.50,0009.33
2023-01-23 19:18:00,,0825.8,5.00,0.00,22.7,21.5,00.0,31.5,24.6,14.0,-001.0,0011.45,0009.34,0009.17
2023-01-23 19:19:00,,0825.9,5.01,0.00,22.7,21.5,00.0,31.5,24.6,13.9,0000.0,0011.26,0009.17,0009.00
2023-01-23 19:20:00,,0826.0,4.99,0.00,22.7,21.6,00.0,31.5,24.6,13.9,0000.0,0011.09,0008.98,0008.82
2023-01-23 19:21:00,,0826.2,5.02,0.00,22.7,21.6,00.0,31.5,24.6,13.9,0000.0,0010.90,0008.79,0008.63
2023-01-23 19:22:00,,0825.9,4.99,0.00,22.8,21.6,00.0,31.5,24.6,13.9,0000.0,0010.75,0008.60,0008.43
2023-01-23 19:23:00,,0825.7,4.99,0.00,22.8,21.6,00.0,31.5,24.6,13.9,0000.0,0010.60,0008.47,0008.29
2023-01-23 19:24:00,,0825.7,5.00,0.00,22.8,21.6,00.0,31.5,24.6,13.9,0000.0,0010.53,0008.39,0008.21
2023-01-23 19:25:00,,0825.7,5.00,0.00,22.8,21.6,00.0,31.5,24.7,13.9,0000.0,0010.46,0008.31,0008.15
2023-01-23 19:26:00,,0825.6,4.99,0.00,22.8,21.7,00.0,31.5,24.7,13.9,0000.0,0010.34,0008.24,0008.08
2023-01-23 19:27:00,,0825.6,5.00,0.00,22.8,21.7,00.0,31.5,24.7,13.9,0000.0,0010.26,0008.18,0008.03
2023-01-23 19:28:00,,0825.6,5.00,0.00,22.8,21.7,00.0,31.5,24.7,14.0,0000.0,0010.27,0008.19,0008.03
2023-01-23 19:29:00,,0825.6,5.01,0.00,22.8,21.6,00.0,31.5,24.7,14.1,0000.0,0010.32,0008.24,0008.07
2023-01-23 19:30:00,,0825.6,5.00,0.00,22.8,21.5,00.0,31.5,24.6,14.2,0000.0,0010.48,0008.35,0008.15
2023-01-23 19:31:00,,0825.5,5.01,0.00,22.8,21.5,00.0,31.5,24.6,14.3,0000.0,0010.61,0008.44,0008.21
2023-01-23 19:32:00,,0825.4,4.99,0.00,22.8,21.5,00.0,31.5,24.6,14.4,0000.0,0010.72,0008.53,0008.29
2023-01-23 19:33:00,,0825.5,5.00,0.00,22.8,21.4,00.0,31.5,24.6,14.4,0000.0,0010.79,0008.63,0008.39
2023-01-23 19:34:00,,0825.5,5.00,0.00,22.8,21.3,00.0,31.5,24.6,14.5,0000.0,0010.87,0008.71,0008.45
2023-01-23 19:35:00,,0825.5,5.00,0.00,22.7,21.3,00.0,31.5,24.5,14.5,0000.0,0010.99,0008.79,0008.52
2023-01-23 19:36:00,,0825.4,5.01,0.00,22.7,21.2,00.0,31.5,24.5,14.4,0000.0,0011.01,0008.85,0008.56
2023-01-23 19:37:00,,0825.4,4.99,0.00,22.7,21.2,00.0,31.5,24.5,14.5,0000.0,0011.07,0008.91,0008.61
2023-01-23 19:38:00,,0825.4,5.01,0.00,22.7,21.2,00.0,31.5,24.5,14.6,0000.0,0011.22,0009.02,0008.70
2023-01-23 19:39:00,,0825.4,5.01,0.00,22.7,21.2,00.0,31.5,24.5,14.6,0000.0,0011.30,0009.08,0008.76
2023-01-23 19:40:00,,0825.4,5.01,0.00,22.7,21.1,00.0,31.5,24.5,14.6,0000.0,0011.29,0009.10,0008.79
2023-01-23 19:41:00,,0825.4,4.98,0.00,22.7,21.1,00.0,31.5,24.4,14.6,0000.0,0011.19,0009.10,0008.82
2023-01-23 19:42:00,,0825.4,4.99,0.00,22.6,21.0,00.0,31.5,24.4,14.6,0000.0,0011.17,0009.12,0008.87
2023-01-23 19:43:00,,0825.4,4.99,0.00,22.6,21.0,00.0,31.5,24.4,14.6,0000.0,0011.22,0009.16,0008.90
2023-01-23 19:44:00,,0825.3,4.98,0.00,22.6,21.0,00.0,31.5,24.4,14.7,0000.0,0011.30,0009.21,0008.94
2023-01-23 19:45:00,,0825.3,5.01,0.00,22.6,20.9,00.0,31.4,24.3,14.8,0000.0,0011.39,0009.27,0009.00
2023-01-23 19:46:00,,0825.4,4.99,0.00,22.6,20.9,00.0,31.4,24.3,14.9,0000.0,0011.59,0009.33,0009.05
2023-01-23 19:47:00,,0825.3,4.99,0.00,22.6,20.8,00.0,31.4,24.3,14.9,0000.0,0011.73,0009.41,0009.13
2023-01-23 19:48:00,,0825.3,5.00,0.00,22.5,20.9,00.0,31.4,24.3,14.7,0000.0,0011.77,0009.46,0009.17
2023-01-23 19:49:00,,0825.3,5.01,0.00,22.5,20.9,00.0,31.4,24.2,14.7,0000.0,0011.74,0009.46,0009.20
2023-01-23 19:50:00,,0825.3,5.02,0.00,22.5,20.8,00.0,31.4,24.2,14.8,0000.0,0011.89,0009.47,0009.21
2023-01-23 19:51:00,,0825.3,5.01,0.00,22.5,20.8,00.0,31.4,24.2,14.9,0000.0,0012.28,0009.51,0009.24
2023-01-23 19:52:00,,0825.3,5.02,0.00,22.5,20.8,00.0,31.3,24.2,14.9,0000.0,0012.97,0009.55,0009.28
2023-01-23 19:53:00,,0825.2,5.00,0.00,22.4,20.7,00.0,31.3,24.2,14.9,0000.0,0013.06,0009.56,0009.29
2023-01-23 19:54:00,,0825.2,4.98,0.00,22.4,20.7,00.0,31.3,24.2,14.8,0000.2,0013.00,0009.55,0009.28
2023-01-23 19:55:00,,0825.2,4.99,0.00,22.4,20.7,00.0,31.3,24.1,14.7,0000.0,0012.86,0009.49,0009.26
2023-01-23 19:56:00,,0825.2,4.99,0.00,22.4,20.7,00.0,31.3,24.1,14.7,0000.5,0012.79,0009.44,0009.21
2023-01-23 19:57:00,,0825.2,4.99,0.00,22.4,20.7,00.0,31.3,24.1,14.6,0000.7,0012.55,0009.35,0009.14
2023-01-23 19:58:00,,0825.2,5.01,0.00,22.4,20.7,00.0,31.3,24.1,14.7,0000.8,0012.40,0009.27,0009.05
2023-01-23 19:59:00,,0825.2,5.00,0.00,22.4,20.7,00.0,31.2,24.1,14.7,0000.4,0012.32,0009.22,0008.99
